Regional Weather Roundup
Issued by NWS Jackson, KY

Home | Current Version | Previous Version | Text Only | Print | Product List | Glossary Off
Versions: 1 2 3 4 5 6 7 8 9 10 11 12 13 14 15 16 17 18 19 20 21 22 23 24 25 26 27 28 29 30 31 32 33 34 35 36 37 38 39 40 41 42 43 44 45 46 47 48 49 50

000
ASUS43 KJKL 010719
RWRJKL

EAST KENTUCKY HOURLY WEATHER ROUNDUP
NATIONAL WEATHER SERVICE JACKSON KY
300 AM EDT WED OCT 01 2014

NOTE: "FAIR" INDICATES FEW OR NO CLOUDS BELOW 12,000 FEET WITH
NO SIGNIFICANT WEATHER AND/OR OBSTRUCTIONS TO VISIBILITY.

* THESE REPORTS ARE NOT UNDER NWS QUALITY CONTROL AND MAY NOT
  REPORT WEATHER SUCH AS PRECIPITATION AND FOG.

KYZ079-080-083-085-087-088-110-112-115-119-120-010800
...EASTERN KENTUCKY...

CITY           SKY/WX    TMP DP  RH WIND       PRES   REMARKS
JACKSON        CLEAR     63  58  83 E3        29.97R
LONDON         CLEAR     57  54  89 CALM      29.97S
SOMERSET*      CLEAR     55  55 100 CALM      29.97S
MONTICELLO*    CLEAR     54  53  96 CALM      29.98R
WILLIAMSBURG*    N/A     54  54 100 CALM      29.97S
MIDDLESBORO*   PTCLDY    53  53  99 CALM      29.99S
HARLAN APT*    CLOUDY    54  54 100 CALM      29.99S VSB 1/4
HAZARD APT*    SUNNY     57  57 100 CALM      29.97S FOG
BLACK MTN*       N/A     57  50  77 SE1         N/A
PIKEVILLE APT* CLEAR     61  57  88 CALM      29.97S
BIG SANDY*     SUNNY     60  58  95 N3        29.97S
MOREHEAD APT*  CLOUDY    61  59  94 CALM      30.00S
ASHLAND*       CLOUDY    61  52  72 CALM      29.96S
$$

KYZ035-036-041-042-044-050-067-078-099-010800
...CENTRAL KENTUCKY...

CITY           SKY/WX    TMP DP  RH WIND       PRES   REMARKS
MT STERLING*   CLOUDY    59  59 100 NE6       30.00R FOG
FLEMING/MASON* CLOUDY    55  52  88 N5        30.00F
DANVILLE*      CLEAR     57  55  94 CALM      29.98S FOG
RICHMOND*      CLEAR     59  55  88 CALM      29.96F
LEXINGTON      PTCLDY    60  56  86 NE7       29.98S FOG
FRANKFORT      MOCLDY    59  56  89 NE7       29.98R
$$

KYZ091>093-OHZ055-061-077-WVZ005-015-034-035-042-010800
...SOUTHERN OHIO/WEST VIRGINIA...

CITY           SKY/WX    TMP DP  RH WIND       PRES   REMARKS
COVINGTON      PTCLDY    53  47  79 E5        30.00R
COLUMBUS       PTCLDY    49  48  97 N5        29.99S
DAYTON         CLEAR     46  44  93 N5        30.02S
WILMINGTON     CLEAR     45  43  93 NE7       30.00S
HUNTINGTON     CLOUDY    61  58  90 CALM      29.96S
CHARLESTON     MOCLDY    60  58  92 CALM      29.96S FOG
PINEVILLE*     CLEAR     55  55 100 MISG      30.03S FOG
BECKLEY        CLEAR     58  51  78 S5        30.00S
BLUEFIELD      CLEAR     58  51  78 W6        30.01F
$$

VAZ002-007-008-TNZ017-027-036-066-071-010800
...SOUTHWEST VIRGINIA/EAST TENNESSEE...

CITY           SKY/WX    TMP DP  RH WIND       PRES   REMARKS
WISE*          CLEAR     57  50  77 SW5       30.03S
JONESVILLE*    SUNNY     50  50 100 CALM      30.01S
ABINGDON*      CLEAR     55  54  95 CALM      30.00F
BRISTOL        CLEAR     52  50  93 CALM      29.98S FOG
KNOXVILLE      CLEAR     60  57  89 NE3       29.94S
OAK RIDGE      MOCLDY    58  57  97 CALM      29.97S FOG
CROSSVILLE     CLEAR     56  51  84 CALM      29.99S
NASHVILLE      CLEAR     61  56  83 CALM      29.94S
$$

...KEY TO REMARKS...
VSB - VISIBILITY IN MILES
WCI - WIND CHILL INDEX
HX  - HEAT INDEX

$$



USA.gov is the U.S. government's official web portal to all federal, state and local government web resources and services.